This is the latest recevied weather packets stored in our database for station/object KE1THD. If no packets are shown the sender has not sent any weather packets the latest 10 day(s).
| Time | Temp. | Humidity | Pressure | Rain* | Wind** | Luminosity | Snow |
|---|---|---|---|---|---|---|---|
| 1777846259 | 22.78° C | 40% | 1005.9 hPa | 0 mm | - | 337 W/m² | - |
| 1777845955 | 22.78° C | 40% | 1006 hPa | 0 mm | - | 344 W/m² | - |
| 1777845653 | 22.78° C | 39% | 1006 hPa | 0 mm | - | 356 W/m² | - |
| 1777845349 | 22.78° C | 39% | 1005.9 hPa | 0 mm | - | 386 W/m² | - |
| 1777845046 | 22.78° C | 39% | 1006 hPa | 0 mm | - | 395 W/m² | - |
| 1777844745 | 22.78° C | 40% | 1006 hPa | 0 mm | - | 420 W/m² | - |
| 1777844441 | 22.78° C | 39% | 1005.9 hPa | 0 mm | - | 412 W/m² | - |
| 1777844139 | 22.78° C | 39% | 1006 hPa | 0 mm | - | 455 W/m² | - |
| 1777843836 | 23.33° C | 39% | 1006.1 hPa | 0 mm | - | 454 W/m² | - |
| 1777843533 | 23.33° C | 39% | 1006 hPa | 0 mm | - | 478 W/m² | - |
| 1777843230 | 23.33° C | 39% | 1006 hPa | 0 mm | - | 486 W/m² | - |
| 1777842927 | 22.78° C | 40% | 1006.2 hPa | 0 mm | - | 518 W/m² | - |
| 1777842623 | 22.78° C | 39% | 1006 hPa | 0 mm | - | 515 W/m² | - |
| 1777842320 | 22.78° C | 41% | 1006.2 hPa | 0 mm | - | 515 W/m² | - |
| 1777842016 | 22.22° C | 40% | 1006.3 hPa | 0 mm | - | 525 W/m² | - |
| 1777841712 | 22.22° C | 41% | 1006.3 hPa | 0 mm | - | 546 W/m² | - |
| 1777841409 | 22.78° C | 39% | 1006.6 hPa | 0 mm | - | 576 W/m² | - |
| 1777841106 | 22.22° C | 40% | 1006.3 hPa | 0 mm | - | 562 W/m² | - |
| 1777840803 | 22.22° C | 39% | 1006.5 hPa | 0 mm | - | 547 W/m² | - |
| 1777840500 | 22.78° C | 40% | 1006.6 hPa | 0 mm | - | 596 W/m² | - |
| 1777840196 | 22.22° C | 40% | 1006.6 hPa | 0 mm | - | 605 W/m² | - |
| 1777839895 | 22.22° C | 40% | 1006.5 hPa | 0 mm | - | 613 W/m² | - |
| 1777839593 | 23.33° C | 40% | 1006.7 hPa | 0 mm | - | 641 W/m² | - |
| 1777839290 | 22.78° C | 41% | 1006.8 hPa | 0 mm | - | 672 W/m² | - |
| 1777838987 | 21.67° C | 42% | 1006.9 hPa | 0 mm | - | 671 W/m² | - |
* Rain latest hour (hover to see other rain measurements)
** Current wind speed in m/s (hover to see current wind gust speed)